Hourly Data Report for October 20, 2015

All times are specified in Local Standard Time (LST). Add 1 hour to adjust for Daylight Saving Time where and when it is observed.

FREDERICTON
NEW BRUNSWICK

45°52'08.000" N
66°32'14.000" W
20.70 m
8101505
71700
YFC

Download Data

Hourly Data (October 2015)
Hourly Data Report for October 20, 2015
Temp Definition
°C
Dew Point Temp Definition
°C
Rel Hum Definition
%
Wind Dir Definition
10's deg

Wind Spd Definition
km/h
Visibility Definition
km
Stn Press Definition
kPa
Hmdx Definition


Wind Chill Definition


Weather Definition


TIME
00:00 Legend Double Dagger 2.8 -5.4 55 21 17 16.1 101.65     LegendNANA
01:00 Legend Double Dagger 3.0 -5.2 55 21 17 16.1 101.56     LegendNANA
02:00 Legend Double Dagger 3.5 -4.0 58 20 11 16.1 101.46     LegendNANA
03:00 Legend Double Dagger 4.3 -3.5 57 21 17 16.1 101.37     LegendNANA
04:00 Legend Double Dagger 4.5 -2.7 60 21 15 16.1 101.29     LegendNANA
05:00 Legend Double Dagger 4.7 -2.1 62 20 17 16.1 101.26     LegendNANA
06:00 Legend Double Dagger 5.2 -1.3 63 21 21 16.1 101.21     LegendNANA
07:00 Legend Double Dagger 5.6 -0.2 66 20 26 16.1 101.16     LegendNANA
08:00 Legend Double Dagger 6.0 0.4 67 20 22 16.1 101.14     LegendNANA
09:00 Legend Double Dagger 6.5 0.7 66 20 24 16.1 101.11     LegendNANA
10:00 Legend Double Dagger 7.2 1.4 66 22 22 16.1 101.12     LegendNANA
11:00 Legend Double Dagger 8.1 2.3 67 20 15 16.1 101.06     LegendNANA
12:00 Legend Double Dagger 9.2 2.9 65 22 11 16.1 101.01     LegendNANA
13:00 Legend Double Dagger 11.0 3.6 60 21 30 16.1 100.93     LegendNANA
14:00 Legend Double Dagger 12.9 4.4 56 23 32 16.1 100.86     LegendNANA
15:00 Legend Double Dagger 13.7 5.0 55 24 22 16.1 100.84     LegendNANA
16:00 Legend Double Dagger 13.2 5.5 59 24 18 16.1 100.89     LegendNANA
17:00 Legend Double Dagger 12.5 5.7 63 24 13 16.1 100.93     LegendNANA
18:00 Legend Double Dagger 11.5 6.1 69 23 9 16.1 101.00     LegendNANA
19:00 Legend Double Dagger 11.0 6.0 71 24 13 16.1 101.13     LegendNANA
20:00 Legend Double Dagger 11.8 5.7 66 25 13 16.1 101.22     LegendNANA
21:00 Legend Double Dagger 11.0 3.8 61 30 15 16.1 101.34     LegendNANA
22:00 Legend Double Dagger 8.8 2.6 65 28 9 16.1 101.48     LegendNANA
23:00 Legend Double Dagger 7.4 0.5 61 28 5 16.1 101.58     LegendNANA

Notes on Data Quality.

Legend

  • E = Estimated
  • M = Missing
  • NA = Not Available
  • ‡ = Partner data that is not subject to review by the National Climate Archives
Date modified: